Location: ??????
(41.3164°N, 22.6615°E)
Time: 20:47:59
(UTC+00:00)

CUBESAT XI-V - Pass Details

Date: 03 July 2022
Orbit: 668 x 690 km, 98.1° (Epoch: 11 August)

Event Time Altitude Azimuth Distance (km) Brightness Sun altitude
Exits shadow 23:50:31 34° 124° (SE) 1,103 ? -23.4°
Maximum altitude 23:52:05 49° 72° (ENE) 867 ? -23.3°
Drops below altitude 10° 23:56:30 10° 358° (N) 2,106 ? -23.0°
Sets 23:58:47 0° 353° (N) 3,022 ? -22.8°
